Flag for U.S.A. Weather past 2 weeks in Rockford, Illinois, U.S.A.

Now
39 °F

Passing clouds.


Feels Like: 32 °F
Forecast: 36 / 57 °F
Wind: 10 mph from North

Location: Greater Rockford Airport


UV Index: 5 (Moderate)

Visibility: 10 mi


Pressure: 30.30 "Hg

Humidity: 76%

Dew point: 32 °F

Location of RockfordLocation

Historic Weather in Rockford

°F

Rockford temperature yesterday

Maximum temperature yesterday: 57 °F (at 2:54 PM)
Minimum temperature yesterday: 40 °F (at 5:54 AM)
Average temperature yesterday: 48 °F

Past Weeks' High & Low Weather Summary

 TemperatureHumidityPressure
High78 °F (Apr 12, 3:54 PM)97% (Apr 4, 12:54 AM)30.31 "Hg (Apr 4, 12:54 AM)
Low23 °F (Apr 15, 5:54 AM)15% (Apr 10, 3:54 PM)29.40 "Hg (Apr 14, 12:54 AM)
Average47 °F61%29.93 "Hg
* Reported Apr 3 1:54 AM — Apr 18 1:54 AM, Rockford, Weather by CustomWeather, © 2014

Note: Actual official high and low records may vary slightly from our data, if they occured in-between our weather recording intervals... More about our weather records

Advertising

Historic Weather Conditions — Data for Previous 24 hours

 ConditionsComfort  
Time TempWeatherWind HumidityBarometerVisibility
1:54 AM
Apr 18
40 °FPassing clouds.10 mph77%30.31 "Hg10 mi
12:54 AM43 °FPassing clouds.14 mph71%30.31 "Hg10 mi
11:54 PM
Apr 17
45 °FOvercast.9 mph71%30.29 "Hg10 mi
10:54 PM47 °FMostly cloudy.5 mph66%30.28 "Hg10 mi
9:54 PM49 °FMostly cloudy.No wind64%30.28 "Hg10 mi
8:54 PM50 °FMostly cloudy.3 mph61%30.27 "Hg10 mi
7:54 PM51 °FMore clouds than sun.5 mph56%30.26 "Hg10 mi
6:54 PM55 °FMore clouds than sun.6 mph51%30.24 "Hg10 mi
5:54 PM56 °FOvercast.7 mph47%30.23 "Hg10 mi
4:54 PM57 °FOvercast.9 mph46%30.23 "Hg10 mi
3:54 PM57 °FOvercast.8 mph47%30.23 "Hg10 mi
2:54 PM57 °FOvercast.9 mph49%30.23 "Hg10 mi
1:54 PM54 °FBroken clouds.12 mph53%30.23 "Hg10 mi
12:54 PM51 °FMostly cloudy.9 mph56%30.24 "Hg10 mi
11:54 AM50 °FMostly cloudy.8 mph59%30.22 "Hg10 mi
10:54 AM47 °FOvercast.9 mph66%30.21 "Hg10 mi
9:54 AM47 °FCloudy.12 mph69%30.17 "Hg10 mi
9:01 AM47 °FCloudy.14 mph66%30.14 "Hg10 mi
8:54 AM47 °FMostly cloudy.10 mph66%30.15 "Hg10 mi
7:54 AM44 °FOvercast.14 mph60%30.14 "Hg10 mi
6:54 AM41 °FMostly cloudy.16 mph65%30.11 "Hg10 mi
5:54 AM40 °FMostly cloudy.13 mph65%30.09 "Hg10 mi
4:54 AM41 °FMostly cloudy.17 mph62%30.07 "Hg10 mi
3:54 AM42 °FMostly cloudy.13 mph57%30.08 "Hg10 mi
Weather by CustomWeather, © 2014

See weather overview